Location: Gwatt
(46.7204°N, 7.6223°E)
Time: 19:41:40
(UTC+00:00)

Transit 2A - Pass Details

Date: 25 January 2021
Orbit: 600 x 958 km, 66.7° (Epoch: 26 February)

Event Time Altitude Azimuth Distance (km) Brightness Sun altitude
Rises 03:33:28 0° 219° (SW) 3,495 - -35.5°
Reaches altitude 10° 03:36:05 10° 221° (SW) 2,512 - -35.1°
Maximum altitude 03:41:52 71° 305° (NW) 860 - -34.1°
Exits shadow 03:45:07 24° 25° (NNE) 1,560 7.8 -33.5°
Drops below altitude 10° 03:47:07 10° 30° (NNE) 2,284 8.8 -33.2°
Sets 03:49:24 0° 33° (NNE) 3,156 9.7 -32.8°
